DATE,TIME,WSPD,WD,GST,ATMP,WTMP,BARO,DEPTH,AWVHT,MWVHT,WVHT,APD,, - WTMP - 10 April 2009
10/04/2009,00:00,12.3,164,14.4,12.6,10.1,1002.5,5.05,0.02,0.02,-1000,-1000,,
10/04/2009,00:05,12.4,164,14.8,12.6,10.1,1002.6,5.05,0.02,0.02,-1000,-1000,,
10/04/2009,00:10,10.9,164,14.8,12.6,10.1,1002.6,5.05,0.02,0.03,-1000,-1000,,
10/04/2009,00:15,10.7,163,12.4,12.6,10.1,1002.6,5.04,0.02,0.02,-1000,-1000,,
10/04/2009,00:20,10.7,164,12.3,12.5,10.1,1002.5,5.03,0.02,0.02,-1000,-1000,,
10/04/2009,00:25,10.1,164,12.3,12.5,10.1,1002.5,5.03,0.02,0.02,-1000,-1000,,
10/04/2009,00:30,8.9,164,11.6,12.4,10.2,1002.4,5.01,0.04,0.05,-1000,-1000,,
10/04/2009,00:35,8.8,164,11.6,12.5,10.2,1002.4,5,0.03,0.02,-1000,-1000,,
10/04/2009,00:40,9.4,168,10,12.7,10.1,1002.3,4.99,0.02,0.03,-1000,-1000,,
10/04/2009,00:45,9.5,179,10.2,12.7,10.2,1002.4,4.97,0.02,0.03,-1000,-1000,,
10/04/2009,00:50,8.8,185,10.1,12.4,10.2,1002.4,4.97,0.02,0.02,-1000,-1000,,
10/04/2009,00:55,8,187,9.1,12.2,10.2,1002.4,4.96,0.02,0.02,-1000,-1000,,
10/04/2009,01:00,7.8,180,8.8,12.1,10.2,1002.4,4.95,0.02,0.02,-1000,-1000,,
10/04/2009,01:05,8.3,178,10.4,12.4,10.2,1002.3,4.94,0.02,0.02,-1000,-1000,,
10/04/2009,01:10,8.6,177,9.7,12.4,10.2,1002.3,4.93,0.02,0.02,-1000,-1000,,
10/04/2009,01:15,8.6,175,10.1,12.5,10.2,1002.2,4.92,0.02,0.02,-1000,-1000,,
10/04/2009,01:20,9,175,10.1,12.5,10.2,1002.1,4.92,0.02,0.02,-1000,-1000,,
10/04/2009,01:25,9.2,175,10.1,12.5,10.2,1002.1,4.91,0.02,0.02,-1000,-1000,,
10/04/2009,01:30,9.8,183,10.9,12.4,10.2,1002.2,4.91,0.02,0.02,-1000,-1000,,
10/04/2009,01:35,9.5,186,10.6,12.3,10.2,1002.2,4.91,0.02,0.02,-1000,-1000,,
10/04/2009,01:40,9,186,10.6,12.2,10.2,1002.2,4.91,0.02,0.02,-1000,-1000,,
10/04/2009,01:45,8.1,197,9.2,12.1,10.2,1002.1,4.9,0.02,0.02,-1000,-1000,,
10/04/2009,01:50,7.6,195,8.9,12,10.2,1002,4.89,0.02,0.02,-1000,-1000,,
10/04/2009,01:55,8.3,189,9.4,11.9,10.2,1002,4.89,0.02,0.02,-1000,-1000,,
10/04/2009,02:00,8.6,189,9.4,11.9,10.2,1002,4.89,0.02,0.02,-1000,-1000,,
10/04/2009,02:05,7.5,180,8.6,11.8,10.2,1001.8,4.88,0.02,0.02,-1000,-1000,,
10/04/2009,02:10,7,173,7.7,11.8,10.2,1001.7,4.87,0.02,0.02,-1000,-1000,,
10/04/2009,02:15,7.3,173,7.7,11.9,10.2,1001.7,4.86,0.02,0.02,-1000,-1000,,
10/04/2009,02:20,7.2,174,8.1,12.1,10.1,1001.6,4.84,0.02,0.02,-1000,-1000,,
10/04/2009,02:25,6.7,181,7.6,12,10.1,N/A,4.82,0.02,0.02,-1000,-1000,,
10/04/2009,02:30,6.6,194,7.1,11.8,10.1,1001.7,4.78,0.02,0.02,-1000,-1000,,
10/04/2009,02:35,6.5,206,7.1,11.6,10.1,1001.7,4.75,0.02,0.02,-1000,-1000,,
10/04/2009,02:40,7.4,206,7.1,11.7,10.1,1001.7,4.71,0.02,0.02,-1000,-1000,,
10/04/2009,02:45,7.8,198,8.6,11.7,10.2,1001.6,4.66,0.02,0.02,-1000,-1000,,
10/04/2009,02:50,7.7,197,8.5,11.7,10.2,1001.6,4.59,0.02,0.02,-1000,-1000,,
10/04/2009,02:55,7.8,197,8.5,12,10.2,1001.5,4.54,0.02,0.02,-1000,-1000,,
10/04/2009,03:00,7,210,8,11.8,10.2,1001.5,4.46,0.02,0.02,-1000,-1000,,
10/04/2009,03:05,7.8,210,8,12.1,10.2,1001.6,4.39,0.02,0.02,-1000,-1000,,
10/04/2009,03:10,8.5,210,8,12,10.2,1001.5,4.31,0.03,0.04,-1000,-1000,,
10/04/2009,03:15,8.6,206,9.8,12,10.2,1001.5,4.19,0.03,0.03,-1000,-1000,,
10/04/2009,03:20,9.1,205,10.9,12,10.2,1001.5,4.07,0.03,0.03,-1000,-1000,,
10/04/2009,03:25,9.3,205,10.9,11.9,10.2,1001.6,3.98,0.03,0.03,-1000,-1000,,
10/04/2009,03:30,8.6,202,10.5,11.6,10.2,1001.7,3.85,0.03,0.04,-1000,-1000,,
10/04/2009,03:35,9,196,10.4,11.5,10.2,1001.7,3.69,0.03,0.04,-1000,-1000,,
10/04/2009,03:40,9.6,196,10.4,11.6,10.2,1001.6,3.58,0.03,0.04,-1000,-1000,,
10/04/2009,03:45,10.5,194,12,11.6,10.2,1001.8,3.41,0.03,0.03,-1000,-1000,,
10/04/2009,03:50,9.6,193,12.3,11.5,10.2,1001.7,3.26,0.03,0.03,-1000,-1000,,
10/04/2009,03:55,8,194,9.7,11.5,10.2,1001.8,3.12,0.04,0.05,-1000,-1000,,
10/04/2009,04:00,6.3,194,9.7,11.5,10.2,1001.8,3.01,0.04,0.05,-1000,-1000,,
10/04/2009,04:05,5.9,214,9,11.6,10.2,1001.8,2.84,0.03,0.03,-1000,-1000,,
10/04/2009,04:10,6.8,214,9,11.6,10.2,1001.7,2.73,0.03,0.03,-1000,-1000,,
10/04/2009,04:15,5.6,207,8.2,11.5,10.2,1001.7,2.59,0.03,0.03,-1000,-1000,,
10/04/2009,04:20,6.1,215,7.5,11.5,10.2,1001.7,2.44,0.03,0.03,-1000,-1000,,
10/04/2009,04:25,5.8,215,7.5,11.4,10.3,1001.8,2.36,0.03,0.03,-1000,-1000,,
10/04/2009,04:30,4.1,202,6.2,11.3,10.3,1001.6,2.22,0.03,0.03,-1000,-1000,,
10/04/2009,04:35,3.7,194,5.5,11.3,10.4,1001.8,2.1,0.03,0.04,-1000,-1000,,
10/04/2009,04:40,6,201,8.1,11.2,10.4,1002,1.99,0.03,0.03,-1000,-1000,,
10/04/2009,04:45,8.2,212,12.5,11.3,10.4,1002,1.89,0.03,0.03,-1000,-1000,,
10/04/2009,04:50,10.5,212,12.5,11.4,10.4,1001.8,1.81,0.02,0.03,-1000,-1000,,
10/04/2009,04:55,12.8,226,15.5,11.2,10.4,1001.8,1.68,0.03,0.03,-1000,-1000,,
10/04/2009,05:00,13.5,226,15.5,11.1,10.4,1001.8,1.61,0.03,0.03,-1000,-1000,,
10/04/2009,05:05,14.2,220,16.1,11,10.4,1001.9,1.52,0.03,0.03,-1000,-1000,,
10/04/2009,05:10,13.8,219,15.9,10.9,10.4,1001.8,1.45,0.02,0.02,-1000,-1000,,
10/04/2009,05:15,13.3,216,15.2,10.8,10.4,1001.9,1.39,0.02,0.02,-1000,-1000,,
10/04/2009,05:20,12.7,214,14.5,10.7,10.4,1002,1.34,0.02,0.02,-1000,-1000,,
10/04/2009,05:25,12.8,212,14.3,10.7,10.4,1002.1,1.3,0.02,0.02,-1000,-1000,,
10/04/2009,05:30,12.7,212,14.3,10.6,10.4,1002.1,1.28,0.02,0.02,-1000,-1000,,
10/04/2009,05:35,11,203,13.4,10.4,10.4,1002,1.26,0.02,0.02,-1000,-1000,,
10/04/2009,05:40,10.9,203,13.4,10.5,10.4,1002,1.25,0.02,0.02,-1000,-1000,,
10/04/2009,05:45,9.6,189,10.8,10.4,10.4,1002.1,1.25,0.03,0.03,-1000,-1000,,
10/04/2009,05:50,10,193,12.9,10.3,10.4,1002,1.26,0.02,0.02,-1000,-1000,,
10/04/2009,05:55,10.1,190,14.3,10.4,10.4,1001.8,1.28,0.02,0.02,-1000,-1000,,
10/04/2009,06:00,8,195,10.3,10.3,10.4,1001.6,1.3,0.02,0.02,-1000,-1000,,
10/04/2009,06:05,8.7,202,10.3,10.4,10.4,1001.7,1.33,0.02,0.02,-1000,-1000,,
10/04/2009,06:10,8.5,202,10.3,10.4,10.3,1001.7,1.36,0.02,0.02,-1000,-1000,,
10/04/2009,06:15,6.8,196,8.6,10.4,10.3,1001.7,1.41,0.02,0.02,-1000,-1000,,
10/04/2009,06:20,6.5,196,8.6,10.3,10.3,1001.7,1.44,0.03,0.04,-1000,-1000,,
10/04/2009,06:25,6,170,6.8,10.3,10.3,1001.7,1.5,0.03,0.03,-1000,-1000,,
10/04/2009,06:30,6.3,165,7.7,10.3,10.3,1001.6,1.55,0.03,0.03,-1000,-1000,,
10/04/2009,06:35,5.8,158,7.7,10.3,10.3,1001.6,1.6,0.03,0.03,-1000,-1000,,
10/04/2009,06:40,4.5,158,7.7,10.2,10.3,1001.5,1.65,0.03,0.03,-1000,-1000,,
10/04/2009,06:45,3.5,130,5.1,10.2,10.3,1001.5,1.74,0.03,0.03,-1000,-1000,,
10/04/2009,06:50,4.6,122,5.6,10.2,10.4,1001.6,1.81,0.03,0.03,-1000,-1000,,
10/04/2009,06:55,5.6,122,5.6,10.2,10.5,1001.6,1.87,0.03,0.04,-1000,-1000,,
10/04/2009,07:00,7,131,8,10.3,10.5,N/A,1.95,0.03,0.04,-1000,-1000,,
10/04/2009,07:05,6.9,131,8,10.3,10.4,1001.5,1.98,0.04,0.06,-1000,-1000,,
10/04/2009,07:10,6.4,99,7.9,10.2,10.3,1001.4,2.05,0.04,0.04,-1000,-1000,,
10/04/2009,07:15,7.4,104,8.6,10.3,10.3,1001.3,2.1,0.03,0.03,-1000,-1000,,
10/04/2009,07:20,7.2,104,8.7,10.3,10.3,1001.3,2.15,0.03,0.03,-1000,-1000,,
10/04/2009,07:25,8.2,104,8.7,10.3,10.2,1001.3,2.2,0.03,0.03,-1000,-1000,,
10/04/2009,07:30,9.2,119,11,10.4,10.2,1001.3,2.25,0.04,0.04,-1000,-1000,,
10/04/2009,07:35,10.1,132,11.6,10.5,10.2,1001.4,2.31,0.02,0.03,-1000,-1000,,
10/04/2009,07:40,9.2,132,11.6,10.5,10.2,1001.4,2.34,0.03,0.03,-1000,-1000,,
10/04/2009,07:45,7.3,152,8.8,10.4,10.2,1001.5,2.41,0.03,0.03,-1000,-1000,,
10/04/2009,07:50,7.1,152,8.8,10.5,10.2,1001.5,2.45,0.03,0.03,-1000,-1000,,
10/04/2009,07:55,6.4,153,7.7,10.4,10.2,1001.7,2.5,0.03,0.03,-1000,-1000,,
10/04/2009,08:00,5.9,152,7.6,10.4,10.2,1001.7,2.54,0.02,0.02,-1000,-1000,,
10/04/2009,08:05,4.7,153,6,10.4,10.2,1001.8,2.58,0.04,0.05,-1000,-1000,,
10/04/2009,08:10,4.2,153,6,10.4,10.2,1001.8,2.59,0.03,0.03,-1000,-1000,,
10/04/2009,08:15,3,157,3.8,10.4,10.2,1001.8,2.62,0.02,0.03,-1000,-1000,,
10/04/2009,08:20,3.7,171,5.4,10.5,10.2,1001.8,2.63,0.03,0.03,-1000,-1000,,
10/04/2009,08:25,5.4,154,7.3,10.6,10.2,N/A,2.65,0.03,0.03,-1000,-1000,,
10/04/2009,08:30,6.4,145,7.8,10.7,10.2,1001.7,2.67,0.03,0.03,-1000,-1000,,
10/04/2009,08:35,5,129,6.1,10.5,10.2,1001.6,2.68,0.02,0.02,-1000,-1000,,
10/04/2009,08:40,5.3,129,6.7,10.5,10.2,1001.7,2.69,0.02,0.02,-1000,-1000,,
10/04/2009,08:45,6,129,6.7,10.4,10.2,1001.7,2.7,0.02,0.02,-1000,-1000,,
10/04/2009,08:50,6.3,124,7,10.4,10.2,1001.7,2.71,0.02,0.03,-1000,-1000,,
10/04/2009,08:55,5.8,124,7,10.3,10.2,1001.6,2.73,0.03,0.03,-1000,-1000,,
10/04/2009,09:00,5.2,128,7,10.3,10.2,1001.7,2.74,0.02,0.02,-1000,-1000,,
10/04/2009,09:05,5.6,123,7.4,10.2,10.2,1001.7,2.78,0.03,0.03,-1000,-1000,,
10/04/2009,09:10,6.6,118,7.6,10.2,10.2,1001.8,2.8,0.02,0.02,-1000,-1000,,
10/04/2009,09:15,6.8,119,8.1,10.1,10.2,1001.8,2.83,0.02,0.03,-1000,-1000,,
10/04/2009,09:20,7.4,122,8.7,10.1,10.2,1001.8,2.86,0.03,0.03,-1000,-1000,,
10/04/2009,09:25,7.1,122,8.7,10.1,10.2,1001.8,2.89,0.03,0.03,-1000,-1000,,
10/04/2009,09:30,6.9,120,8.3,10.1,10.2,1001.9,2.93,0.04,0.04,-1000,-1000,,
10/04/2009,09:35,8.2,120,9.4,10.1,10.2,1001.9,2.99,0.04,0.04,-1000,-1000,,
10/04/2009,09:40,8.1,120,9.4,10.1,10.2,1001.8,3.03,0.04,0.04,-1000,-1000,,
10/04/2009,09:45,8.7,120,10,10.1,10.2,1001.8,3.1,0.03,0.03,-1000,-1000,,
10/04/2009,09:50,9.3,124,10.9,10,10.2,1001.8,3.16,0.02,0.03,-1000,-1000,,
10/04/2009,09:55,9.5,130,11.1,10,10.1,1001.8,3.22,0.03,0.04,-1000,-1000,,
10/04/2009,10:00,10.2,136,12.1,10,10.1,1001.8,3.28,0.06,0.09,-1000,-1000,,
10/04/2009,10:05,9.9,137,11.6,10.1,10.1,1001.8,3.33,0.08,0.09,-1000,-1000,,
10/04/2009,10:10,11.6,146,14.8,10.1,10.2,1001.8,3.43,0.06,0.07,-1000,-1000,,
10/04/2009,10:15,10.3,152,12.5,10.1,10.2,1001.9,3.5,0.04,0.04,-1000,-1000,,
10/04/2009,10:20,10,157,11.6,10.2,10.2,1002,3.58,0.04,0.04,-1000,-1000,,
10/04/2009,10:25,10.9,167,13.8,10.2,10.1,1002,3.66,0.04,0.05,-1000,-1000,,
10/04/2009,10:30,12.6,169,14.8,10.3,10.1,1002.1,3.77,0.06,0.06,-1000,-1000,,
10/04/2009,10:35,11.9,169,14.6,10.4,10.1,1002.1,3.84,0.05,0.05,-1000,-1000,,
10/04/2009,10:40,12.8,176,15.1,10.4,10.1,1002.3,3.91,0.05,0.05,-1000,-1000,,
10/04/2009,10:45,12.5,175,15.2,10.4,10.1,1002.4,4.04,0.04,0.04,-1000,-1000,,
10/04/2009,10:50,11.8,178,14.7,10.4,10.1,1002.3,4.13,0.04,0.06,-1000,-1000,,
10/04/2009,10:55,12.9,175,16.7,10.4,10.1,1002.3,4.2,0.05,0.05,-1000,-1000,,
10/04/2009,11:00,12.4,174,16.5,10.4,10,1002.3,4.33,0.05,0.06,-1000,-1000,,
10/04/2009,11:05,12.8,172,15.4,10.4,10,1002.3,4.38,0.05,0.05,-1000,-1000,,
10/04/2009,11:10,14.1,170,18.5,10.4,10,1002.2,4.48,0.04,0.05,-1000,-1000,,
10/04/2009,11:15,12.5,168,16.2,10.3,10,1002.2,4.57,0.03,0.05,-1000,-1000,,
10/04/2009,11:20,12.5,170,15.5,10.3,10,1002.1,4.62,0.03,0.03,-1000,-1000,,
10/04/2009,11:25,12.4,170,15.5,10.3,10,1002.1,4.7,0.05,0.07,-1000,-1000,,
10/04/2009,11:30,11.1,169,13.9,10.4,10,1002.1,4.77,0.04,0.04,-1000,-1000,,
10/04/2009,11:35,11.6,171,14.1,10.4,10,1002.1,4.81,0.03,0.04,-1000,-1000,,
10/04/2009,11:40,11.2,174,14,10.5,10,1002.1,4.85,0.05,0.05,-1000,-1000,,
10/04/2009,11:45,10.4,174,14,10.5,10,1002,4.87,0.04,0.05,-1000,-1000,,
10/04/2009,11:50,12.9,178,15.6,10.6,10,1002,4.88,0.03,0.03,-1000,-1000,,
10/04/2009,11:55,12.4,178,15.1,10.6,10,1001.9,4.89,0.03,0.04,-1000,-1000,,
10/04/2009,12:00,11.1,180,13.7,10.6,10,1001.9,4.88,0.03,0.04,-1000,-1000,,
10/04/2009,12:05,10.5,178,12.8,10.6,10,1001.9,4.9,0.03,0.03,-1000,-1000,,
10/04/2009,12:10,9.9,179,12.3,10.6,10,1001.9,4.9,0.03,0.03,-1000,-1000,,
10/04/2009,12:15,9,175,11.7,10.6,10,1001.8,4.91,0.02,0.02,-1000,-1000,,
10/04/2009,12:20,8.6,174,11.3,10.6,10.1,1001.7,4.9,0.03,0.03,-1000,-1000,,
10/04/2009,12:25,9.7,173,11.6,10.7,10.1,1001.7,4.9,0.03,0.04,-1000,-1000,,
10/04/2009,12:30,8.6,173,11.6,10.7,10.1,1001.8,4.9,0.04,0.04,-1000,-1000,,
10/04/2009,12:35,8.4,158,11,10.8,10.1,1001.8,4.9,0.02,0.03,-1000,-1000,,
10/04/2009,12:40,9,151,10.8,10.8,10.1,1001.9,4.88,0.03,0.04,-1000,-1000,,
10/04/2009,12:45,9.7,162,11.2,10.9,10.1,1001.8,4.87,0.02,0.03,-1000,-1000,,
10/04/2009,12:50,10.5,167,13.1,10.9,10.2,1001.8,4.85,0.02,0.02,-1000,-1000,,
10/04/2009,12:55,10.2,167,13.1,10.9,10.2,1001.8,4.84,0.02,0.03,-1000,-1000,,
10/04/2009,13:00,8.9,148,11,10.7,10.2,1001.8,4.82,0.03,0.04,-1000,-1000,,
10/04/2009,13:05,9.4,146,10.9,10.6,10.2,N/A,4.83,0.03,0.04,-1000,-1000,,
10/04/2009,13:10,10.2,143,11.7,10.4,10.2,1001.8,4.81,0.04,0.04,-1000,-1000,,
10/04/2009,13:15,10.6,143,11.7,10.5,10.2,1001.8,4.8,0.02,0.02,-1000,-1000,,
10/04/2009,13:20,10.3,149,11.7,10.5,10.2,1001.8,4.8,0.03,0.03,-1000,-1000,,
10/04/2009,13:25,10.4,149,12.6,10.4,10.2,1001.8,4.79,0.03,0.03,-1000,-1000,,
10/04/2009,13:30,10.4,149,12.6,10.4,10.2,1001.9,4.79,0.04,0.04,-1000,-1000,,
10/04/2009,13:35,9.2,152,10.5,10.4,10.2,1001.9,4.78,0.03,0.03,-1000,-1000,,
10/04/2009,13:40,8.8,158,10.6,10.4,10.2,1001.9,4.78,0.04,0.05,-1000,-1000,,
10/04/2009,13:45,8.6,162,11,10.4,10.2,1002,4.77,0.03,0.03,-1000,-1000,,
10/04/2009,13:50,9.1,166,11.6,10.5,10.2,1001.9,4.77,0.02,0.02,-1000,-1000,,
10/04/2009,13:55,9.3,166,11.6,10.6,10.2,1002,4.78,0.03,0.03,-1000,-1000,,
10/04/2009,14:00,8.2,166,11.6,10.6,10.2,1002,4.78,0.04,0.05,-1000,-1000,,
10/04/2009,14:05,8.3,176,10.3,10.6,10.2,1002,4.78,0.04,0.04,-1000,-1000,,
10/04/2009,14:10,8.9,176,10.3,10.6,10.2,1002,4.79,0.04,0.04,-1000,-1000,,
10/04/2009,14:15,9.3,176,10.8,10.5,10.2,1002,4.8,0.03,0.03,-1000,-1000,,
10/04/2009,14:20,8.3,179,9.6,10.5,10.2,1002,4.79,0.03,0.03,-1000,-1000,,
10/04/2009,14:25,8.2,183,11.1,10.5,10.2,1002,4.78,0.03,0.03,-1000,-1000,,
10/04/2009,14:30,7.8,182,9.4,10.5,10.2,1002,4.77,0.05,0.05,-1000,-1000,,
10/04/2009,14:35,7.8,182,9.4,10.5,10.2,1002,4.77,0.03,0.03,-1000,-1000,,
10/04/2009,14:40,7.8,181,9.2,10.5,10.2,1002,4.74,0.04,0.04,-1000,-1000,,
10/04/2009,14:45,7.5,181,9.2,10.6,10.2,1002,4.72,0.03,0.03,-1000,-1000,,
10/04/2009,14:50,6.2,183,7.9,10.6,10.2,1002,4.68,0.03,0.03,-1000,-1000,,
10/04/2009,14:55,5.9,182,7.5,10.7,10.2,1002,4.64,0.03,0.03,-1000,-1000,,
10/04/2009,15:00,6.3,182,7.5,10.7,10.2,1002,4.61,0.04,0.05,-1000,-1000,,
10/04/2009,15:05,7.6,195,10.8,10.7,10.2,1001.9,4.56,0.03,0.03,-1000,-1000,,
10/04/2009,15:10,6.4,195,10.8,10.6,10.2,1001.9,4.5,0.04,0.05,-1000,-1000,,
10/04/2009,15:15,7.8,205,11.2,10.6,10.2,1001.9,4.42,0.03,0.04,-1000,-1000,,
10/04/2009,15:20,8.9,205,11.2,10.6,10.2,1001.9,4.36,0.03,0.03,-1000,-1000,,
10/04/2009,15:25,8.7,208,10.4,10.6,10.2,1001.9,4.26,0.03,0.03,-1000,-1000,,
10/04/2009,15:30,7.9,210,9.9,10.6,10.2,1001.9,4.16,0.04,0.05,-1000,-1000,,
10/04/2009,15:35,7.6,210,9,10.6,10.2,1002,4.05,0.04,0.04,-1000,-1000,,
10/04/2009,15:40,7,209,8.1,10.6,10.2,1002,3.94,0.04,0.04,-1000,-1000,,
10/04/2009,15:45,7.3,209,8.1,10.6,10.2,1002,3.84,0.03,0.04,-1000,-1000,,
10/04/2009,15:50,7.8,205,9.8,10.4,10.2,1001.9,3.68,0.04,0.04,-1000,-1000,,
10/04/2009,15:55,6.5,205,9.8,10.4,10.2,1001.9,3.57,0.04,0.04,-1000,-1000,,
10/04/2009,16:00,5.6,227,7.3,10.4,10.2,1001.9,3.41,0.05,0.06,-1000,-1000,,
10/04/2009,16:05,6.5,235,7.8,10.3,10.2,1001.9,3.28,0.04,0.04,-1000,-1000,,
10/04/2009,16:10,6.1,234,7.4,10.3,10.2,1002,3.14,0.05,0.05,-1000,-1000,,
10/04/2009,16:15,6.1,234,7.4,10.2,10.2,1001.9,3.03,0.04,0.04,-1000,-1000,,
10/04/2009,16:20,6.4,234,7.8,10.2,10.2,1001.8,2.86,0.03,0.04,-1000,-1000,,
10/04/2009,16:25,6.2,234,7.8,10.2,10.2,1001.9,2.76,0.04,0.04,-1000,-1000,,
10/04/2009,16:30,6,232,6.8,10.3,10.3,1002,2.6,0.06,0.06,-1000,-1000,,
10/04/2009,16:35,5.3,233,6.3,10.3,10.3,1002,2.48,0.05,0.06,-1000,-1000,,
10/04/2009,16:40,4.6,233,6.3,10.3,10.3,1002,2.39,0.05,0.05,-1000,-1000,,
10/04/2009,16:45,4.7,239,5.6,10.3,10.3,1002.1,2.25,0.03,0.04,-1000,-1000,,
10/04/2009,16:50,4.5,238,5.2,10.4,10.4,1002,2.15,0.04,0.04,-1000,-1000,,
10/04/2009,16:55,3.5,238,5.2,10.5,10.4,1002.1,2.05,0.04,0.04,-1000,-1000,,
10/04/2009,17:00,3.1,236,4.1,10.5,10.4,1002.1,1.95,0.05,0.07,-1000,-1000,,
10/04/2009,17:05,3,232,3.5,10.5,10.4,1002.2,1.83,0.04,0.04,-1000,-1000,,
10/04/2009,17:10,2.7,223,3.3,10.5,10.4,1002.3,1.74,0.04,0.05,-1000,-1000,,
10/04/2009,17:15,2.3,223,3.3,10.5,10.4,1002.3,1.67,0.05,0.05,-1000,-1000,,
10/04/2009,17:20,1.5,216,2,10.5,10.4,1002.3,1.57,0.04,0.04,-1000,-1000,,
10/04/2009,17:25,1.8,242,2.7,10.4,10.4,1002.3,1.51,0.03,0.03,-1000,-1000,,
10/04/2009,17:30,1.9,242,2.8,10.5,10.4,1002.4,1.45,0.04,0.04,-1000,-1000,,
10/04/2009,17:35,1.9,242,2.8,10.5,10.4,1002.4,1.4,0.04,0.03,-1000,-1000,,
10/04/2009,17:40,3.9,205,4.8,10.6,10.4,1002.3,1.35,0.04,0.04,-1000,-1000,,
10/04/2009,17:45,4.1,214,4.9,10.6,10.4,1002.3,1.31,0.03,0.03,-1000,-1000,,
10/04/2009,17:50,4.1,216,5.1,10.6,10.4,1002.2,1.28,0.02,0.03,-1000,-1000,,
10/04/2009,17:55,3.9,219,5.4,10.5,10.4,1002.2,1.26,0.03,0.04,-1000,-1000,,
10/04/2009,18:00,5.5,227,6.5,10.5,10.4,1002.3,1.26,0.05,0.05,-1000,-1000,,
10/04/2009,18:05,6.2,217,7.2,10.5,10.4,1002.3,1.27,0.03,0.04,-1000,-1000,,
10/04/2009,18:10,6.3,217,7.2,10.5,10.4,1002.3,1.29,0.04,0.05,-1000,-1000,,
10/04/2009,18:15,7.3,219,8.6,10.4,10.4,1002.4,1.31,0.04,0.04,-1000,-1000,,
10/04/2009,18:20,7.3,219,8.6,10.4,10.4,1002.5,1.34,0.03,0.03,-1000,-1000,,
10/04/2009,18:25,6.6,222,7.4,10.4,10.4,1002.5,1.38,0.02,0.03,-1000,-1000,,
10/04/2009,18:30,7,232,8.3,10.3,10.3,1002.7,1.41,0.05,0.05,-1000,-1000,,
10/04/2009,18:35,7.6,232,8.7,10.3,10.3,1002.7,1.46,0.03,0.04,-1000,-1000,,
10/04/2009,18:40,6.3,232,8.7,10.3,10.3,1002.6,1.51,0.04,0.04,-1000,-1000,,
10/04/2009,18:45,4.6,238,5.8,10.3,10.3,1002.5,1.57,0.03,0.03,-1000,-1000,,
10/04/2009,18:50,4.9,239,6,10.3,10.3,1002.6,1.62,0.03,0.03,-1000,-1000,,
10/04/2009,18:55,5.8,239,6,10.2,10.3,1002.6,1.67,0.04,0.05,-1000,-1000,,
10/04/2009,19:00,7.5,237,8.4,10.2,10.4,1002.7,1.74,0.05,0.05,-1000,-1000,,
10/04/2009,19:05,6.6,232,7.3,10.2,10.4,1002.8,1.82,0.03,0.03,-1000,-1000,,
10/04/2009,19:10,6.1,226,6.6,10.2,10.4,1002.8,1.89,0.05,0.06,-1000,-1000,,
10/04/2009,19:15,6.2,226,6.6,10.2,10.5,1002.9,1.94,0.04,0.04,-1000,-1000,,
10/04/2009,19:20,5.8,220,6.5,10.2,10.4,1002.9,2,0.03,0.03,-1000,-1000,,
10/04/2009,19:25,5.2,234,6,10.2,10.4,1002.9,2.05,0.03,0.03,-1000,-1000,,
10/04/2009,19:30,6.6,242,7.8,10.1,10.3,1002.8,2.09,0.04,0.05,-1000,-1000,,
10/04/2009,19:35,7.4,235,8.3,10.1,10.3,N/A,2.15,0.03,0.04,-1000,-1000,,
10/04/2009,19:40,8.1,233,9.3,10,10.3,1003,2.2,0.03,0.03,-1000,-1000,,
10/04/2009,19:45,8,236,9,10,10.3,1003.1,2.26,0.03,0.03,-1000,-1000,,
10/04/2009,19:50,8.3,231,9.9,9.9,10.3,1003.1,2.31,0.03,0.03,-1000,-1000,,
10/04/2009,19:55,9.4,231,9.9,9.9,10.2,1003.2,2.35,0.03,0.04,-1000,-1000,,
10/04/2009,20:00,9.1,230,10,9.9,10.2,1003.2,2.41,0.03,0.03,-1000,-1000,,
10/04/2009,20:05,9.2,230,10,9.8,10.2,1003.3,2.45,0.03,0.03,-1000,-1000,,
10/04/2009,20:10,7.9,229,9,9.8,10.2,1003.4,2.5,0.03,0.04,-1000,-1000,,
10/04/2009,20:15,7.8,222,8.4,9.8,10.2,1003.5,2.54,0.02,0.02,-1000,-1000,,
10/04/2009,20:20,6.7,222,7.6,9.8,10.3,1003.5,2.57,0.02,0.02,-1000,-1000,,
10/04/2009,20:25,5.7,222,7.6,9.8,10.2,1003.5,2.6,0.02,0.03,-1000,-1000,,
10/04/2009,20:30,5.3,218,5.8,9.7,10.3,1003.5,2.62,0.03,0.03,-1000,-1000,,
10/04/2009,20:35,5.1,220,5.6,9.7,10.3,N/A,2.64,0.02,0.02,-1000,-1000,,
10/04/2009,20:40,5.4,220,5.6,9.7,10.3,1003.6,2.66,0.02,0.02,-1000,-1000,,
10/04/2009,20:45,5.4,226,6,9.6,10.3,1003.7,2.67,0.02,0.03,-1000,-1000,,
10/04/2009,20:50,5.8,222,6.9,9.6,10.3,1003.8,2.69,0.02,0.02,-1000,-1000,,
10/04/2009,20:55,6,222,6.9,9.7,10.2,1003.8,2.7,0.02,0.02,-1000,-1000,,
10/04/2009,21:00,6.2,231,7.3,9.6,10.2,1003.9,2.72,0.02,0.02,-1000,-1000,,
10/04/2009,21:05,6.1,232,7,9.6,10.2,1003.8,2.73,0.02,0.02,-1000,-1000,,
10/04/2009,21:10,6.9,235,7.4,9.6,10.2,1003.8,2.74,0.04,0.05,-1000,-1000,,
10/04/2009,21:15,7.1,235,7.4,9.5,10.2,1003.8,2.75,0.03,0.03,-1000,-1000,,
10/04/2009,21:20,7.3,235,8.1,9.4,10.2,1003.9,2.79,0.03,0.05,-1000,-1000,,
10/04/2009,21:25,7.1,235,8.1,9.4,10.2,1003.9,2.81,0.03,0.04,-1000,-1000,,
10/04/2009,21:30,7.7,235,8.4,9.4,10.2,1003.8,2.83,0.05,0.06,-1000,-1000,,
10/04/2009,21:35,7.3,235,8.4,9.4,10.2,1003.8,2.87,0.04,0.03,-1000,-1000,,
10/04/2009,21:40,7,247,7.6,9.4,10.2,1003.8,2.91,0.03,0.04,-1000,-1000,,
10/04/2009,21:45,7.3,250,8.3,9.4,10.2,1003.8,2.95,0.03,0.04,-1000,-1000,,
10/04/2009,21:50,7.1,249,7.7,9.4,10.2,1003.8,2.96,0.04,0.04,-1000,-1000,,
10/04/2009,21:55,7.4,249,7.7,9.4,10.2,1003.9,3.02,0.03,0.04,-1000,-1000,,
10/04/2009,22:00,8,243,8.8,9.4,10.2,1003.9,3.06,0.05,0.05,-1000,-1000,,
10/04/2009,22:05,8.3,243,8.8,9.4,10.2,1004,3.11,0.04,0.04,-1000,-1000,,
10/04/2009,22:10,8.6,235,9.5,9.4,10.2,1004,3.18,0.04,0.05,-1000,-1000,,
10/04/2009,22:15,7.9,235,9.1,9.4,10.2,1004.1,3.23,0.04,0.04,-1000,-1000,,
10/04/2009,22:20,7.3,235,9.1,9.4,10.2,1004.1,3.3,0.03,0.04,-1000,-1000,,
10/04/2009,22:25,6.6,235,8.1,9.4,10.2,1004.1,3.36,0.03,0.03,-1000,-1000,,
10/04/2009,22:30,6.5,235,7.1,9.4,10.2,1004.2,3.46,0.04,0.05,-1000,-1000,,
10/04/2009,22:35,6.2,235,7.5,9.4,10.2,1004.3,3.54,0.03,0.03,-1000,-1000,,
10/04/2009,22:40,6.7,232,7.1,9.4,10.2,1004.3,3.63,0.03,0.04,-1000,-1000,,
10/04/2009,22:45,6.2,234,7,9.4,10.1,1004.3,3.72,0.04,0.04,-1000,-1000,,
10/04/2009,22:50,6.1,234,7,9.4,10.1,1004.3,3.79,0.04,0.04,-1000,-1000,,
10/04/2009,22:55,7.2,245,8.2,9.4,10.1,1004.2,3.9,0.03,0.04,-1000,-1000,,
10/04/2009,23:00,8.1,247,9.6,9.5,10.1,1004.3,3.99,0.03,0.03,-1000,-1000,,
10/04/2009,23:05,9.4,247,9.6,9.5,10.1,1004.3,4.07,0.03,0.03,-1000,-1000,,
10/04/2009,23:10,9.8,247,9.6,9.5,10.1,1004.4,4.16,0.03,0.04,-1000,-1000,,
10/04/2009,23:15,8.4,253,9.4,9.6,10.1,1004.5,4.27,0.03,0.03,-1000,-1000,,
10/04/2009,23:20,8,257,9.1,9.6,10.1,1004.6,4.36,0.03,0.03,-1000,-1000,,
10/04/2009,23:25,6.8,261,7.8,9.5,10.1,1004.6,4.44,0.03,0.03,-1000,-1000,,
10/04/2009,23:30,6,261,7.8,9.4,10.1,1004.6,4.51,0.04,0.05,-1000,-1000,,
10/04/2009,23:35,5.5,270,7.1,9.4,10.1,1004.6,4.6,0.03,0.03,-1000,-1000,,
10/04/2009,23:40,5.3,282,6.8,9.4,10.1,1004.7,4.69,0.02,0.02,-1000,-1000,,
10/04/2009,23:45,5,290,6.1,9.4,10.1,1004.8,4.74,0.03,0.03,-1000,-1000,,
10/04/2009,23:50,5.9,312,7.8,9.5,10.1,1004.8,4.8,0.03,0.03,-1000,-1000,,
10/04/2009,23:55,7.5,325,9,9.5,10.1,1004.8,4.86,0.02,0.03,-1000,-1000,,
